Bend, OR

2:59 AM PDT on April 25, 2018 (GMT -0700)
Bend Municipal

Weather History for KBDN - November, 2012

Change the Weather History Date:

Sunday, November 18, 2012

  Actual Average (KRDM) Record (KRDM)
Temperature  
Mean Temperature 38 °F -  
Max Temperature 44 °F 46 °F 69 °F (2008)
Min Temperature 32 °F 26 °F -7 °F (2014)
Degree Days  
Heating Degree Days 27    
Moisture  
Dew Point 21 °F    
Average Humidity 50    
Maximum Humidity 64    
Minimum Humidity 37    
Precipitation  
Precipitation 0.00 in - - ()
Sea Level Pressure  
Sea Level Pressure 29.85 in    
Wind  
Wind Speed 11 mph (South)    
Max Wind Speed 29 mph    
Max Gust Speed 36 mph    
Visibility 10 miles    
Events      
Averages and records for this station are not official NWS values.
T = Trace of Precipitation, MM = Missing Value Source: NWS Daily Summary

Daily Weather History Graph

Daily Weather History Graph

Search for Another Location

Airport or City:

Astronomy

Nov. 18, 2012 Rise Set
Actual Time 7:04 AM PST 4:35 PM PST
Civil Twilight 6:33 AM PST 5:06 PM PST
Nautical Twilight 5:57 AM PST 5:41 PM PST
Astronomical Twilight 5:23 AM PST 6:16 PM PST
Moon 11:32 AM PST (11/18) 10:04 PM PST (11/18)
Length of Visible Light 10h 33m
Length of Day
9h 30m
Waxing Crescent, 31% of the Moon is Illuminated
Nov 18
Waxing Crescent
Nov 20
First Quarter
Nov 28
Full
Dec 6
Last Quarter
Dec 13
New

Hourly Weather History & Observations

Time (PST) Temp. Windchill Dew Point Humidity Pressure Visibility Wind Dir Wind Speed Gust Speed Precip Events Conditions
12:15 AM 33.8 °F 26.4 °F 19.4 °F 56% 29.85 in 10.0 mi South 9.2 mph 21.9 mph N/A   Clear
12:35 AM 35.6 °F 26.6 °F 19.4 °F 52% 29.85 in 10.0 mi SSW 13.8 mph 19.6 mph N/A   Clear
12:55 AM 33.8 °F 24.8 °F 19.4 °F 56% 29.85 in 10.0 mi SSW 12.7 mph 18.4 mph N/A   Clear
1:15 AM 33.8 °F 24.8 °F 19.4 °F 56% 29.86 in 10.0 mi SSW 12.7 mph - N/A   Clear
1:35 AM 32.0 °F 22.5 °F 19.4 °F 60% 29.86 in 10.0 mi SSW 12.7 mph - N/A   Clear
1:55 AM 33.8 °F 29.6 °F 19.4 °F 56% 29.86 in 10.0 mi SW 4.6 mph - N/A   Clear
2:15 AM 32.0 °F 26.4 °F 19.4 °F 60% 29.87 in 10.0 mi South 5.8 mph - N/A   Clear
2:35 AM 33.8 °F 24.8 °F 19.4 °F 56% 29.87 in 10.0 mi South 12.7 mph 17.3 mph N/A   Clear
3:15 AM 35.6 °F 25.5 °F 19.4 °F 52% 29.88 in 10.0 mi South 17.3 mph 23.0 mph N/A   Clear
3:35 AM 35.6 °F 28.6 °F 19.4 °F 52% 29.88 in 10.0 mi SSW 9.2 mph - N/A   Clear
3:55 AM 33.8 °F 25.3 °F 19.4 °F 56% 29.88 in 10.0 mi SSW 11.5 mph - N/A   Clear
4:15 AM 35.6 °F 27.5 °F 19.4 °F 52% 29.89 in 10.0 mi SW 11.5 mph - N/A   Clear
4:35 AM 35.6 °F 29.2 °F 19.4 °F 52% 29.88 in 10.0 mi SSW 8.1 mph - N/A   Clear
4:55 AM 32.0 °F 28.7 °F 19.4 °F 60% 29.89 in 10.0 mi SE 3.5 mph - N/A   Clear
5:15 AM 32.0 °F 28.7 °F 19.4 °F 60% 29.88 in 10.0 mi SE 3.5 mph - N/A   Clear
5:35 AM 32.0 °F 26.4 °F 19.4 °F 60% 29.88 in 10.0 mi ESE 5.8 mph - N/A   Clear
5:55 AM 32.0 °F 25.6 °F 19.4 °F 60% 29.88 in 10.0 mi SE 6.9 mph - N/A   Clear
6:15 AM 32.0 °F 27.5 °F 19.4 °F 60% 29.87 in 10.0 mi SSE 4.6 mph - N/A   Clear
6:35 AM 32.0 °F 27.5 °F 19.4 °F 60% 29.87 in 10.0 mi ENE 4.6 mph - N/A   Clear
6:55 AM 32.0 °F 26.4 °F 19.4 °F 60% 29.87 in 10.0 mi East 5.8 mph - N/A   Clear
7:15 AM 32.0 °F 24.8 °F 19.4 °F 60% 29.87 in 10.0 mi East 8.1 mph - N/A   Clear
7:35 AM 32.0 °F 24.8 °F 21.2 °F 64% 29.87 in 10.0 mi SSE 8.1 mph - N/A   Partly Cloudy
7:55 AM 32.0 °F 25.6 °F 21.2 °F 64% 29.88 in 10.0 mi SSE 6.9 mph - N/A   Scattered Clouds
8:15 AM 37.4 °F 29.8 °F 21.2 °F 52% 29.88 in 10.0 mi South 11.5 mph 17.3 mph N/A   Partly Cloudy
9:15 AM 37.4 °F 32.1 °F 19.4 °F 48% 29.88 in 10.0 mi SE 6.9 mph - N/A   Clear
9:35 AM 37.4 °F 32.8 °F 21.2 °F 52% 29.89 in 10.0 mi East 5.8 mph - N/A   Partly Cloudy
10:15 AM 39.2 °F 37.0 °F 21.2 °F 49% 29.88 in 10.0 mi East 3.5 mph - N/A   Clear
10:35 AM 39.2 °F 35.9 °F 23.0 °F 52% 29.89 in 10.0 mi East 4.6 mph - N/A   Clear
11:15 AM 41.0 °F 35.8 °F 19.4 °F 42% 29.88 in 10.0 mi SSE 8.1 mph 16.1 mph N/A   Clear
11:35 AM 41.0 °F 34.7 °F 17.6 °F 39% 29.88 in 10.0 mi SSW 10.4 mph - N/A   Clear
11:55 AM 41.0 °F 36.4 °F 19.4 °F 42% 29.87 in 10.0 mi SSW 6.9 mph - N/A   Partly Cloudy
12:15 PM 41.0 °F 33.9 °F 19.4 °F 42% 29.87 in 10.0 mi SSW 12.7 mph - N/A   Clear
12:55 PM 41.0 °F 34.3 °F 19.4 °F 42% 29.86 in 10.0 mi South 11.5 mph - N/A   Clear
1:15 PM 42.8 °F 35.4 °F 19.4 °F 39% 29.85 in 10.0 mi SSW 15.0 mph 20.7 mph N/A   Clear
1:35 PM 42.8 °F 34.8 °F 19.4 °F 39% 29.84 in 10.0 mi South 17.3 mph 25.3 mph N/A   Clear
1:55 PM 42.8 °F 33.1 °F 19.4 °F 39% 29.83 in 10.0 mi SSW 25.3 mph 33.4 mph N/A   Partly Cloudy
2:15 PM 42.8 °F 32.5 °F 19.4 °F 39% 29.82 in 10.0 mi SSW 28.8 mph 35.7 mph N/A   Scattered Clouds
2:35 PM 44.6 °F 35.9 °F 19.4 °F 37% 29.83 in 10.0 mi SSW 23.0 mph 32.2 mph N/A   Partly Cloudy
2:55 PM 42.8 °F 33.1 °F 19.4 °F 39% 29.83 in 10.0 mi South 25.3 mph 29.9 mph N/A   Clear
3:15 PM 42.8 °F 34.5 °F 21.2 °F 42% 29.83 in 10.0 mi South 18.4 mph 29.9 mph N/A   Clear
3:55 PM 41.0 °F 31.9 °F 21.2 °F 45% 29.84 in 10.0 mi South 19.6 mph 26.5 mph N/A   Clear
4:15 PM 41.0 °F 32.2 °F 21.2 °F 45% 29.83 in 10.0 mi South 18.4 mph 26.5 mph N/A   Clear
4:35 PM 41.0 °F 31.4 °F 23.0 °F 49% 29.83 in 10.0 mi South 21.9 mph 29.9 mph N/A   Clear
4:55 PM 41.0 °F 33.1 °F 21.2 °F 45% 29.82 in 10.0 mi South 15.0 mph 28.8 mph N/A   Clear
5:15 PM 39.2 °F 33.6 °F 21.2 °F 49% 29.82 in 10.0 mi SSE 8.1 mph - N/A   Clear
5:55 PM 39.2 °F 33.6 °F 21.2 °F 49% 29.81 in 10.0 mi South 8.1 mph - N/A   Clear
6:15 PM 39.2 °F 32.5 °F 19.4 °F 45% 29.81 in 10.0 mi South 10.4 mph 16.1 mph N/A   Clear
6:35 PM 39.2 °F 33.6 °F 19.4 °F 45% 29.81 in 10.0 mi South 8.1 mph - N/A   Clear
6:55 PM 39.2 °F 32.0 °F 21.2 °F 49% 29.81 in 10.0 mi South 11.5 mph - N/A   Partly Cloudy
7:15 PM 39.2 °F 29.0 °F 23.0 °F 52% 29.82 in 10.0 mi South 21.9 mph 28.8 mph N/A   Partly Cloudy
7:35 PM 41.0 °F 33.1 °F 23.0 °F 49% 29.82 in 10.0 mi South 15.0 mph 26.5 mph N/A   Partly Cloudy
7:55 PM 41.0 °F 34.7 °F 23.0 °F 49% 29.81 in 10.0 mi South 10.4 mph 16.1 mph N/A   Scattered Clouds
8:15 PM 41.0 °F 35.8 °F 23.0 °F 49% 29.82 in 10.0 mi South 8.1 mph 18.4 mph N/A   Mostly Cloudy
8:35 PM 41.0 °F 32.8 °F 23.0 °F 49% 29.81 in 10.0 mi South 16.1 mph 19.6 mph N/A   Mostly Cloudy
8:55 PM 41.0 °F 32.5 °F 23.0 °F 49% 29.82 in 10.0 mi South 17.3 mph 24.2 mph N/A   Partly Cloudy
9:15 PM 41.0 °F 33.9 °F 23.0 °F 49% 29.82 in 10.0 mi South 12.7 mph 26.5 mph N/A   Partly Cloudy
9:35 PM 41.0 °F 33.1 °F 23.0 °F 49% 29.82 in 10.0 mi South 15.0 mph 23.0 mph N/A   Partly Cloudy
9:55 PM 41.0 °F 32.5 °F 23.0 °F 49% 29.82 in 10.0 mi South 17.3 mph 23.0 mph N/A   Clear
10:15 PM 41.0 °F 33.9 °F 23.0 °F 49% 29.82 in 10.0 mi South 12.7 mph 27.6 mph N/A   Clear
10:35 PM 41.0 °F 32.8 °F 23.0 °F 49% 29.82 in 10.0 mi South 16.1 mph 24.2 mph N/A   Clear
10:55 PM 41.0 °F 32.5 °F 23.0 °F 49% 29.82 in 10.0 mi South 17.3 mph 25.3 mph N/A   Clear
11:15 PM 41.0 °F 33.1 °F 23.0 °F 49% 29.83 in 10.0 mi South 15.0 mph 25.3 mph N/A   Clear
11:35 PM 41.0 °F 33.9 °F 23.0 °F 49% 29.82 in 10.0 mi South 12.7 mph 19.6 mph N/A   Clear
11:55 PM 41.0 °F 34.7 °F 23.0 °F 49% 29.83 in 10.0 mi SSE 10.4 mph 23.0 mph N/A   Clear